Location: Archamps
(46.1365°N, 6.1329°E)
Time: 09:20:11
(UTC+00:00)

CZ-6A DEB - Pass Details

Date: 25 February 2024
Orbit: 823 x 884 km, 98.8° (Epoch: 12 April)

Event Time Altitude Azimuth Distance (km) Brightness Sun altitude
Rises 04:20:49 0° 32° (NNE) 3,399 ? -21.8°
Reaches altitude 10° 04:24:40 10° 60° (ENE) 2,446 ? -21.2°
Maximum altitude 04:27:06 13° 87° (E) 2,227 ? -20.8°
Drops below altitude 10° 04:29:31 10° 114° (ESE) 2,427 ? -20.4°
Sets 04:33:17 0° 142° (SE) 3,349 ? -19.7°
